Tracking 19847 objects as of 16-Sep-2019
HD Live streaming from Space Station
objects crossing your sky now

FENGYUN 1C DEB

Track FENGYUN 1C DEB now!
10-day predictions


NORAD ID: 35165
Int'l Code: 1999-025DMV
Perigee: 824.6 km
Apogee: 869.6 km
Inclination: 99.0 °
Period: 101.7 minutes
Semi major axis: 7218 km
RCS: 0.0024 m2 (small)
Launch date: May 10, 1999
Source: People's Republic of China (PRC)
Launch site: Taiyaun Space Center, China (TSC)

Note: This is SATELLITE DEBRIS
aabbcc
Your satellite tracking list
Your tracking list is empty




NASA's NSSDC Master Catalog

Two Line Element Set (TLE):
1 35165U 99025DMV 19256.30070176 +.00000702 +00000-0 +37941-3 0  9998
2 35165 099.0095 290.9642 0031183 125.4543 234.9548 14.15699280573102
Source of the keplerian elements: AFSPC